FW8334 Weather Reports


Display with metric or nautical units.
time (UTC)temp
F
wind
direction
speed
MPH
gust
MPH
rain 1hr
in
rain 24hr
in
rain mn
in
humidity
%
barometer
mb
20260510154543 62 0 1.0 3.0 0.00 0.00 0.00 87 1012.0
20260510153040 62 0 0.0 3.0 0.00 0.00 0.00 87 1012.1
20260510151541 62 0 0.0 3.0 0.00 0.00 0.00 88 1012.0
20260510150038 61 92 0.0 2.0 0.00 0.00 0.00 88 1012.0
20260510144543 61 0 0.0 2.0 0.00 0.00 0.00 89 1011.9
20260510143044 61 0 0.0 2.0 0.00 0.00 0.00 90 1011.9
20260510141543 60 0 0.0 2.0 0.00 0.00 0.00 90 1011.8
20260510140041 60 0 0.0 0.0 0.00 0.00 0.00 90 1011.7
20260510134538 60 0 0.0 2.0 0.00 0.00 0.00 91 1011.6
20260510133040 60 0 0.0 1.0 0.00 0.00 0.00 91 1011.6
20260510131541 60 0 0.0 0.0 0.00 0.00 0.00 91 1011.4
20260510130042 59 0 0.0 2.0 0.00 0.00 0.00 91 1011.5
20260510124557 59 277 0.0 2.0 0.00 0.00 0.00 91 1011.4
20260510123037 59 219 0.0 2.0 0.00 0.00 0.00 91 1011.4
20260510121540 59 307 0.0 1.0 0.00 0.00 0.00 91 1011.4
20260510120039 59 0 0.0 2.0 0.00 0.00 0.00 91 1011.4
20260510114542 59 0 0.0 2.0 0.00 0.00 0.00 91 1011.3
20260510113042 59 0 0.0 1.0 0.00 0.00 0.00 91 1011.3
20260510111600 59 0 0.0 3.0 0.00 0.00 0.00 91 1011.4
20260510110041 60 106 0.0 3.0 0.00 0.00 0.00 91 1011.4
20260510104558 60 98 0.0 2.0 0.00 0.00 0.00 91 1011.5
20260510103042 60 0 0.0 0.0 0.00 0.00 0.00 91 1011.4
20260510101539 60 0 1.0 3.0 0.00 0.00 0.00 90 1011.5
20260510100040 60 0 1.0 4.0 0.00 0.00 0.00 90 1011.5
20260510094546 60 0 0.0 2.0 0.00 0.00 0.00 90 1011.5
20260510093041 60 104 1.0 3.0 0.00 0.00 0.00 90 1011.6
20260510091551 60 0 0.0 3.0 0.00 0.00 0.00 90 1011.6
20260510090043 60 0 0.0 0.0 0.00 0.00 0.00 89 1011.6
20260510084552 60 0 0.0 0.0 0.00 0.00 0.00 89 1011.7
20260510083041 61 0 0.0 0.0 0.00 0.00 0.00 89 1011.7
20260510081545 61 0 0.0 2.0 0.00 0.00 0.00 89 1011.8
20260510080041 60 0 0.0 2.0 0.00 0.00 0.00 89 1012.0
20260510074540 60 0 0.0 3.0 0.00 0.00 0.00 89 1011.9
20260510073040 61 221 0.0 2.0 0.00 0.00 0.00 89 1012.1
20260510071543 61 0 0.0 3.0 0.00 0.00 0.00 89 1012.1
20260510070046 61 200 0.0 2.0 0.00 0.00 0.00 89 1012.2
20260510064557 61 0 0.0 1.0 0.00 0.00 0.00 88 1012.3
20260510063046 61 0 0.0 1.0 0.00 0.00 0.00 88 1012.3
20260510061547 61 0 0.0 2.0 0.00 0.00 0.00 88 1012.3
20260510060043 61 0 0.0 1.0 0.00 0.00 0.00 88 1012.3
20260510054540 61 0 0.0 1.0 0.00 0.00 0.00 88 1012.2
20260510053038 61 0 0.0 3.0 0.00 0.00 0.00 88 1012.2
20260510051540 61 0 0.0 1.0 0.00 0.00 0.00 88 1012.4
20260510050038 61 0 1.0 2.0 0.00 0.00 0.00 88 1012.3
20260510044545 61 0 0.0 2.0 0.00 0.00 0.00 88 1012.1
20260510043039 61 0 0.0 2.0 0.00 0.00 0.00 89 1012.1
20260510041539 60 0 0.0 2.0 0.00 0.00 0.00 89 1012.1
20260510040040 60 0 0.0 2.0 0.00 0.00 0.00 89 1011.9
20260510034535 60 246 1.0 3.0 0.00 0.00 0.00 89 1011.9
20260510033040 60 0 0.0 2.0 0.00 0.00 0.00 89 1011.7
20260510031547 60 0 0.0 2.0 0.00 0.00 0.00 88 1011.5
20260510030048 61 0 1.0 3.0 0.00 0.00 0.00 88 1011.3
20260510024541 61 0 0.0 3.0 0.00 0.00 0.00 86 1011.3
20260510023040 62 0 1.0 4.0 0.00 0.00 0.00 85 1011.2
20260510021539 63 0 1.0 4.0 0.00 0.00 0.00 84 1011.1
20260510020039 64 283 2.0 4.0 0.00 0.00 0.00 82 1011.0
20260510014540 64 0 0.0 4.0 0.00 0.00 0.00 81 1010.9
20260510013050 65 227 3.0 9.0 0.00 0.00 0.00 80 1010.9
20260510011541 66 236 2.0 8.0 0.00 0.00 0.00 78 1010.9
20260510010039 67 266 1.0 5.0 0.00 0.00 0.00 76 1011.0
20260510004539 68 254 3.0 8.0 0.00 0.00 0.00 75 1011.1
20260510003052 69 0 2.0 11.0 0.00 0.00 0.00 73 1011.1
20260510001557 70 0 2.0 8.0 0.00 0.00 0.00 71 1010.9
20260510000040 70 286 2.0 9.0 0.00 0.00 0.00 71 1010.7
20260509234556 70 219 2.0 7.0 0.00 0.00 0.00 71 1010.6
20260509233043 71 303 2.0 8.0 0.00 0.00 0.00 71 1010.7
20260509231557 71 259 3.0 8.0 0.00 0.00 0.00 69 1010.7
20260509230040 71 274 3.0 9.0 0.00 0.00 0.00 70 1010.8
20260509224536 70 259 2.0 9.0 0.00 0.00 0.00 70 1011.0
20260509223040 72 249 1.0 7.0 0.00 0.00 0.00 69 1011.1
20260509221540 71 264 2.0 7.0 0.00 0.00 0.00 70 1011.2
20260509220040 71 287 3.0 7.0 0.00 0.00 0.00 71 1011.4
20260509214539 72 261 3.0 10.0 0.00 0.00 0.00 68 1011.4
20260509213045 71 257 4.0 11.0 0.00 0.00 0.00 68 1011.4
20260509211548 72 323 2.0 10.0 0.00 0.00 0.00 69 1011.7
20260509210056 70 306 3.0 9.0 0.00 0.00 0.00 70 1011.8
20260509204537 71 286 3.0 9.0 0.00 0.00 0.00 69 1011.9
20260509203041 71 276 4.0 9.0 0.00 0.00 0.00 70 1012.0
20260509201555 72 258 1.0 11.0 0.00 0.00 0.00 69 1012.0
20260509200042 71 282 2.0 8.0 0.00 0.00 0.00 69 1012.0
20260509194540 72 250 3.0 9.0 0.00 0.00 0.00 72 1012.0
20260509193046 74 242 3.0 10.0 0.00 0.00 0.00 67 1012.0
20260509191544 72 244 4.0 9.0 0.00 0.00 0.00 71 1012.0
20260509190046 74 251 2.0 7.0 0.00 0.00 0.00 69 1012.1
20260509184545 73 242 3.0 9.0 0.00 0.00 0.00 70 1012.0
20260509183040 72 275 3.0 8.0 0.00 0.00 0.00 72 1012.0
20260509181539 73 286 3.0 8.0 0.00 0.00 0.00 72 1012.1
20260509180040 72 311 1.0 5.0 0.00 0.00 0.00 72 1012.1
20260509174536 71 265 3.0 8.0 0.00 0.00 0.00 74 1012.4
20260509173041 70 287 1.0 5.0 0.00 0.00 0.00 75 1012.4
20260509171543 69 184 0.0 5.0 0.00 0.00 0.00 77 1012.4
20260509170048 67 205 3.0 8.0 0.00 0.00 0.00 79 1012.3
20260509164543 67 327 0.0 4.0 0.00 0.00 0.00 81 1012.4
20260509163053 65 277 1.0 4.0 0.00 0.00 0.00 84 1012.7
20260509161550 63 266 0.0 4.0 0.00 0.00 0.00 87 1012.6
20260509160039 63 0 0.0 2.0 0.00 0.00 0.00 87 1012.7